Location: Newark
(33.6333°S, 78.8500°W)
Time: 11:08:33
(UTC+00:00)

Vanguard 3 - Visible Passes

Search period start: 23 September 2019 00:00
Search period end: 03 October 2019 00:00
Orbit: 508 x 3263 km, 33.4° (Epoch: 22 September)

Date Brightness Start Highest point End Pass type
(mag) Time Alt. Az. Time Alt. Az. Time Alt. Az.
23 Sep 7.5 00:20:26 10° NW 00:27:11 46° NNE 00:29:15 29° ENE visible
24 Sep 7.2 01:19:01 10° WNW 01:24:18 59° NW 01:24:18 59° NW visible
25 Sep 7.6 00:03:31 10° WNW 00:11:19 57° NNE 00:14:44 20° E visible
25 Sep 9.3 02:17:47 10° W 02:19:19 18° W 02:19:19 18° W visible
26 Sep 6.7 01:02:29 10° WNW 01:09:18 81° N 01:09:43 73° ENE visible
26 Sep 7.7 23:46:32 10° WNW 23:55:24 66° NNE 00:00:06 13° E visible
27 Sep 8.6 02:01:29 10° W 02:04:41 30° W 02:04:41 30° W visible
28 Sep 7.1 00:45:50 10° W 00:53:27 86° N 00:55:03 46° E visible
28 Sep 7.9 23:29:29 10° WNW 23:39:25 75° NNE 23:44:57 10° E visible
29 Sep 7.8 01:45:04 10° W 01:49:59 49° W 01:49:59 49° W visible
30 Sep 7.4 00:29:05 10° W 00:37:34 88° N 00:40:18 30° E visible
30 Sep 9.7 02:43:59 10° W 02:44:53 14° W 02:44:53 14° W visible
01 Oct 7.1 01:28:30 10° W 01:35:12 74° WNW 01:35:12 74° WNW visible
02 Oct 7.6 00:12:14 10° W 00:21:38 89° N 00:25:30 21° E visible
02 Oct 9.2 02:27:39 10° W 02:30:05 22° W 02:30:05 22° W visible
